Погода в Пандаламе

Индия     9°13′27″N   76°40′42″E
темп.,
°C
ветер,
м/с
пор.,
м/с
влажн.,
%
обл.,
%
осадки,
мм/ч
давл.,
гПа
погр.,
м
26 февраля, пт
пт2623:30+23в119628 2.8 101124
02:30+23всв11974 0.0 101024
05:30+22всв11942 0.0 101026
08:30+26всв12760 0.0 1012184
11:30+35ссз12410 0.0 10111542
14:30+36з33360 0.0 10082092
17:30+30з356111 0.2 1007775
20:30+25сз01901 1.6 101024
27 февраля, сб
сб2723:30+24вюв11951 2.2 101125
02:30+23всв11970 0.0 100824
05:30+22всв11970 0.0 100824
08:30+26св12810 0.0 1011229
11:30+35сз11410 0.0 10101579
14:30+36з33360 0.0 10061984
17:30+30з35620 0.1 1006795
20:30+25з018519 0.3 100930
28 февраля, вс
вс2823:30+24св119029 0.3 101024
02:30+23св11930 0.0 100824
05:30+22всв11920 0.0 100726
08:30+27в11630 0.0 1010239
11:30+37ююз11280 0.0 10101449
14:30+37зюз34250 0.0 10072087
17:30+29юз356135 0.0 1006747
20:30+25юв118133 0.0 101025
1 марта, пн
пн123:30+24всв118717 0.0 101124
02:30+23в11880 0.0 100924
05:30+22в117719 0.0 100923
08:30+26в125277 0.0 1012184
11:30+37з022757 0.0 10131433
14:30+37зюз33210 0.0 10092304
17:30+28юз256346 0.0 1008669
20:30+24вюв118067 0.0 101125
2 марта, вт
вт223:30+23в118333 0.0 101225
02:30+22в11840 0.0 101023
05:30+22в12740 0.0 101127
08:30+27в12510 0.0 1013234
11:30+36зюз02290 0.0 10131713
14:30+36з35240 0.0 10092211
17:30+29зюз35610 0.0 1009818
20:30+25юв11830 0.0 101124